Weather reports worldwide

Advertisment
Leesburg, fl, United States of America (2074602): temperature & dewpoint: 06.07.2020 08:00:00 - 12.07.2020 08:00:00 (EDT)Leesburg, fl, United States of America (2074602): wind speed & gusts: 06.07.2020 08:00:00 - 12.07.2020 08:00:00 (EDT)Leesburg, fl, United States of America (2074602): wind direction: 06.07.2020 08:00:00 - 12.07.2020 08:00:00 (EDT)Leesburg, fl, United States of America (2074602): reduced air pressure: 06.07.2020 08:00:00 - 12.07.2020 08:00:00 (EDT)Leesburg, fl, United States of America (2074602): visibility: 06.07.2020 08:00:00 - 12.07.2020 08:00:00 (EDT)Leesburg, fl, United States of America (2074602): precipitation: 06.07.2020 08:00:00 - 12.07.2020 08:00:00 (EDT)
Date & Time tt [°C] td [°C] ff [km/h] ff [kn] fx [km/h] fx [kn] dd ppp [hPa] vv [km] rr [mm]
12.07.2020 08:00:00 26,7 26,1 8 4 - - SSW 1012,8 11 -
12.07.2020 07:00:00 25,6 25,0 0 0 - - N 1012,2 8 -
12.07.2020 06:00:00 25,6 25,0 5 3 - - - 1011,6 13 -
12.07.2020 05:00:00 25,0 24,4 8 4 - - SSW 1011,5 15 -
12.07.2020 04:00:00 25,6 24,4 11 6 - - SSW 1011,9 16 -
12.07.2020 03:00:00 25,6 23,3 9 5 - - SSW 1012,1 16 -
12.07.2020 02:00:00 25,6 23,3 9 5 - - SSW 1012,7 16 -
12.07.2020 01:00:00 25,6 23,3 9 5 - - SSW 1013,1 16 -
12.07.2020 00:00:00 25,0 22,8 9 5 - - SSW 1013,2 16 -
11.07.2020 23:00:00 25,6 22,8 11 6 - - SSW 1013,1 16 -
11.07.2020 22:00:00 25,6 22,8 9 5 - - SSW 1012,8 16 -
11.07.2020 21:00:00 25,6 22,8 9 5 - - SW 1012,6 16 -
11.07.2020 20:00:00 26,1 22,8 13 7 - - S 1012,6 16 -
11.07.2020 19:00:00 25,0 22,8 22 12 - - SE 1012,1 16 -
11.07.2020 18:00:00 27,2 21,1 26 14 - - ENE 1012,7 16 -
11.07.2020 17:00:00 31,7 26,1 15 8 - - SW 1010,8 16 -
11.07.2020 16:00:00 31,7 26,7 13 7 - - WSW 1011,7 16 -
11.07.2020 15:00:00 29,4 24,4 9 5 - - WSW 1011,6 16 -
11.07.2020 14:00:00 29,4 25,0 11 6 - - SW 1013,0 16 -
11.07.2020 13:00:00 33,9 25,6 13 7 - - N 1012,9 16 -
11.07.2020 12:00:00 31,1 26,1 8 4 - - - 1013,3 16 -
11.07.2020 11:00:00 30,0 26,1 11 6 - - W 1013,4 16 -
11.07.2020 10:00:00 28,9 26,7 9 5 - - W 1013,8 16 -
11.07.2020 09:00:00 27,8 26,1 9 5 - - W 1013,6 15 -
11.07.2020 08:00:00 26,1 25,6 5 3 - - SW 1013,1 11 -
11.07.2020 07:00:00 25,6 25,0 0 0 - - N 1012,5 11 -
11.07.2020 06:00:00 24,4 23,9 8 4 - - W 1012,2 16 -
11.07.2020 05:00:00 25,0 23,9 11 6 - - W 1011,8 16 -
11.07.2020 04:00:00 25,0 22,8 11 6 - - W 1012,6 16 -
11.07.2020 03:00:00 24,4 23,9 0 0 - - N 1013,2 16 -
11.07.2020 02:00:00 25,0 22,8 0 0 - - N 1013,8 16 -
11.07.2020 01:00:00 24,4 23,9 9 5 - - WSW 1014,2 16 0,0
11.07.2020 00:00:00 23,9 23,9 9 5 - - SSW 1014,8 16 0,0
10.07.2020 23:00:00 23,3 22,8 0 0 59 32 N 1015,8 3,2 2,5
10.07.2020 22:00:00 23,3 22,8 18 10 59 32 N 1015,6 8 3,0
10.07.2020 21:00:00 28,3 25,0 8 4 - - SW 1013,4 16 -
10.07.2020 20:00:00 29,4 25,0 8 4 - - W 1013,3 16 -
10.07.2020 19:00:00 30,6 25,0 15 8 - - W 1012,4 16 -
10.07.2020 18:00:00 31,7 24,4 13 7 - - W 1012,4 16 -
10.07.2020 17:00:00 32,8 25,6 16 9 - - W 1012,7 16 -
10.07.2020 16:00:00 33,3 25,6 9 5 - - W 1012,9 16 -
10.07.2020 15:00:00 32,2 25,0 13 7 - - SSW 1013,8 16 -
10.07.2020 14:00:00 32,2 25,0 13 7 - - WNW 1014,4 16 -
10.07.2020 13:00:00 30,6 25,6 5 3 - - W 1015,1 16 -
10.07.2020 12:00:00 27,2 24,4 0 0 - - N 1014,9 16 1,5
10.07.2020 11:00:00 29,4 26,1 8 4 - - SW 1015,2 16 -
10.07.2020 10:00:00 27,2 25,6 8 4 - - W 1015,1 16 -
10.07.2020 09:00:00 26,1 25,6 8 4 - - - 1015,2 16 -
10.07.2020 08:00:00 25,6 24,4 11 6 - - SW 1015,0 16 -
10.07.2020 07:00:00 25,6 25,0 9 5 - - SW 1014,4 4,8 -
10.07.2020 06:00:00 26,1 24,4 9 5 - - W 1013,6 16 -
10.07.2020 05:00:00 26,1 24,4 9 5 - - WSW 1013,7 16 -
10.07.2020 04:00:00 26,1 24,4 9 5 - - WSW 1013,6 16 -
10.07.2020 03:00:00 26,7 25,0 8 4 - - - 1013,4 15 -
10.07.2020 02:00:00 26,7 25,0 0 0 - - N 1013,9 16 -
10.07.2020 01:00:00 26,7 25,0 5 3 - - - 1014,3 16 -
10.07.2020 00:00:00 27,2 24,4 8 4 - - WSW 1014,3 16 -
09.07.2020 23:00:00 27,8 23,9 8 4 - - - 1013,9 16 -
09.07.2020 22:00:00 28,3 23,9 11 6 - - W 1013,0 16 -
09.07.2020 21:00:00 28,9 23,3 8 4 - - W 1012,4 16 -
09.07.2020 20:00:00 30,6 23,3 11 6 - - - 1012,0 16 -
09.07.2020 19:00:00 31,7 23,3 18 10 - - W 1011,8 16 -
09.07.2020 18:00:00 32,2 22,8 22 12 - - W 1012,0 16 -
09.07.2020 17:00:00 33,3 23,3 16 9 - - W 1012,0 16 -
09.07.2020 16:00:00 33,3 23,9 18 10 - - W 1012,3 16 -
09.07.2020 15:00:00 33,3 23,9 13 7 - - WSW 1012,6 16 -
09.07.2020 14:00:00 30,6 25,0 0 0 - - N 1013,4 16 -
09.07.2020 13:00:00 30,0 25,0 5 3 - - N 1013,9 16 0,0
09.07.2020 12:00:00 32,2 24,4 15 8 - - NW 1014,0 16 -
09.07.2020 11:00:00 31,1 24,4 13 7 - - WNW 1014,2 16 -
09.07.2020 10:00:00 29,4 25,0 15 8 - - W 1014,3 16 -
09.07.2020 09:00:00 28,3 25,0 13 7 - - WNW 1014,0 16 -
09.07.2020 08:00:00 26,7 25,0 9 5 - - WNW 1013,8 16 -
09.07.2020 07:00:00 25,6 24,4 11 6 - - WNW 1013,3 13 -
09.07.2020 06:00:00 25,6 24,4 9 5 - - W 1013,2 16 -
09.07.2020 05:00:00 25,6 24,4 8 4 - - W 1012,9 16 -
09.07.2020 04:00:00 25,6 24,4 9 5 - - - 1012,9 16 -
09.07.2020 03:00:00 26,1 24,4 9 5 - - WSW 1013,0 16 -
09.07.2020 02:00:00 26,1 24,4 9 5 - - W 1013,5 16 -
09.07.2020 01:00:00 26,1 24,4 11 6 - - W 1014,0 16 -
09.07.2020 00:00:00 26,7 24,4 13 7 - - W 1014,1 16 -
08.07.2020 23:00:00 26,7 24,4 8 4 - - WSW 1014,2 16 -
08.07.2020 22:00:00 27,2 23,9 8 4 - - W 1013,7 16 -
08.07.2020 21:00:00 27,8 24,4 9 5 - - - 1012,8 16 -
08.07.2020 20:00:00 28,3 23,9 13 7 - - WSW 1013,0 16 -
08.07.2020 19:00:00 30,0 23,3 22 12 - - WNW 1012,7 16 -
08.07.2020 18:00:00 30,0 23,3 21 11 - - W 1012,8 16 -
08.07.2020 17:00:00 30,6 23,9 18 10 - - W 1013,1 16 -
08.07.2020 16:00:00 30,0 24,4 16 9 - - WSW 1013,7 16 -
08.07.2020 15:00:00 29,4 24,4 15 8 - - W 1014,4 16 -
08.07.2020 14:00:00 27,8 24,4 15 8 - - SW 1015,3 16 -
08.07.2020 13:00:00 27,2 25,0 13 7 - - WSW 1015,9 16 -
08.07.2020 12:00:00 26,1 24,4 13 7 - - WSW 1016,4 16 0,5
08.07.2020 11:00:00 26,1 25,0 9 5 - - SW 1016,4 16 0,3
08.07.2020 10:00:00 26,1 25,0 5 3 - - SW 1016,2 16 0,3
08.07.2020 09:00:00 25,6 24,4 5 3 - - SW 1016,4 16 -
08.07.2020 08:00:00 25,6 24,4 5 3 - - SSW 1016,0 16 0,0
08.07.2020 07:00:00 25,0 23,9 8 4 - - SSW 1015,3 16 -
08.07.2020 06:00:00 25,0 23,9 9 5 - - SSW 1015,0 16 -
08.07.2020 05:00:00 25,0 23,9 9 5 - - SSW 1015,0 16 -
08.07.2020 04:00:00 25,0 23,9 9 5 - - SW 1015,1 16 -
08.07.2020 03:00:00 25,6 23,9 11 6 - - SW 1015,5 16 -
08.07.2020 02:00:00 25,6 23,9 11 6 - - SW 1016,1 16 -
08.07.2020 01:00:00 25,6 23,9 9 5 - - SSW 1016,6 16 -
08.07.2020 00:00:00 25,6 23,9 8 4 - - SSW 1017,1 16 -
07.07.2020 23:00:00 26,1 23,3 8 4 - - - 1017,2 16 -
07.07.2020 22:00:00 26,1 23,3 9 5 - - W 1017,6 16 -
07.07.2020 21:00:00 26,7 23,3 13 7 - - WNW 1016,8 16 0,3
07.07.2020 20:00:00 27,2 23,3 16 9 - - SW 1016,4 16 0,0
07.07.2020 19:00:00 29,4 23,3 13 7 - - SW 1015,9 16 -
07.07.2020 18:00:00 30,6 24,4 0 0 - - N 1016,0 16 -
07.07.2020 17:00:00 30,6 25,0 - - - - - 1016,3 16 -
07.07.2020 16:00:00 28,3 25,0 9 5 - - SSW 1017,1 16 -
07.07.2020 15:00:00 26,7 23,9 13 7 - - S 1017,6 16 0,3
07.07.2020 14:00:00 25,0 23,3 0 0 - - N 1017,9 16 -
07.07.2020 13:00:00 23,9 22,8 9 5 55 30 W 1018,6 4,8 0,0
07.07.2020 12:00:00 31,1 24,4 13 7 - - SW 1018,1 16 -
07.07.2020 11:00:00 30,0 25,6 16 9 - - SSW 1018,5 16 -
07.07.2020 10:00:00 28,3 25,6 13 7 - - SSW 1018,7 16 -
07.07.2020 09:00:00 25,0 24,4 13 7 - - SSW 1018,6 16 -
07.07.2020 08:00:00 25,0 24,4 11 6 - - S 1017,9 16 -
07.07.2020 07:00:00 24,4 23,9 13 7 - - S 1017,5 16 -
07.07.2020 06:00:00 24,4 23,3 11 6 - - S 1017,6 16 -
07.07.2020 05:00:00 24,4 23,3 9 5 - - S 1017,3 16 -
07.07.2020 04:00:00 24,4 23,3 11 6 - - S 1016,9 16 -
07.07.2020 03:00:00 24,4 23,3 15 8 - - S 1017,2 16 -
07.07.2020 02:00:00 24,4 23,3 18 10 - - S 1017,8 16 -
07.07.2020 01:00:00 24,4 23,3 16 9 - - S 1018,4 16 -
07.07.2020 00:00:00 24,4 23,3 13 7 - - S 1018,6 16 -
06.07.2020 23:00:00 23,9 23,3 11 6 - - S 1018,6 16 -
06.07.2020 22:00:00 23,9 23,3 5 3 - - SSW 1018,0 16 0,5
06.07.2020 21:00:00 23,9 23,9 11 6 - - S 1017,6 16 0,3
06.07.2020 20:00:00 23,3 23,3 8 4 - - ESE 1018,5 8 0,3
06.07.2020 19:00:00 21,7 21,1 13 7 - - ESE 1018,4 16 -
06.07.2020 18:00:00 21,1 20,6 24 13 - - NNW 1019,2 2,4 0,0
06.07.2020 17:00:00 27,2 24,4 9 5 - - ESE 1017,3 16 -
06.07.2020 16:00:00 26,7 24,4 0 0 - - N 1017,0 16 -
06.07.2020 15:00:00 26,1 22,8 0 0 - - N 1016,9 16 -
06.07.2020 14:00:00 25,6 22,8 5 3 - - NW 1017,2 16 -
06.07.2020 13:00:00 23,3 22,2 11 6 55 30 W 1018,2 4,0 0,0
06.07.2020 12:00:00 31,7 24,4 13 7 - - SSE 1017,5 16 -
06.07.2020 11:00:00 30,0 25,0 11 6 - - - 1017,7 16 -
06.07.2020 10:00:00 28,3 24,4 9 5 - - S 1017,4 16 -
06.07.2020 09:00:00 26,7 23,9 11 6 - - S 1017,0 16 -
06.07.2020 08:00:00 25,0 23,3 15 8 - - S 1016,4 16 -

tt = temperature
td = dewpoint
ff = wind speed
fx = gusts
dd = wind direction
ppp = reduced air pressure
vv = visibility
rr = precipitation

Next stations